Tracking 20621 objects as of 31-Mar-2020
HD Live streaming from Space Station
objects crossing your sky now

COSMOS 729

Track COSMOS 729 now!
10-day predictions
COSMOS 729 is classified as:


NORAD ID: 7768
Int'l Code: 1975-034A
Perigee: 977.4 km
Apogee: 1,011.6 km
Inclination: 83.0 °
Period: 104.8 minutes
Semi major axis: 7365 km
RCS: 1.6998 m2 (large)
Launch date: April 22, 1975
Source: Commonwealth of Independent States (former USSR) (CIS)
Launch site: PLESETSK MISSILE AND SPACE COMPLEX (PKMTR)
aabbcc
Your satellite tracking list
Your tracking list is empty




NASA's NSSDC Master Catalog

Two Line Element Set (TLE):
1  7768U 75034A   20090.75474493  .00000041  00000-0  28303-4 0  9996
2  7768  82.9681   2.1350 0023234   4.5012  55.1949 13.73402360251832
Source of the keplerian elements: AFSPC